When you browse on this site, cookies collect data to enhance your experience and personalize the content and advertising you see.
Visit our Privacy Policy to learn more. By continuing to use the site, you agree to this use of cookies and data.
  • în România
  • Lista ţărilor
  • Pe 7 zile
  • Temperatura apei
  • Hartă satelitară
  • Meteo pe hartă
  • Widget-uri
  • user-avatar
    Intrare

    Meteo pe oră la Zvoyskie Vyselki

    Astăzi, 19 Iulie, Vineri

    Timp Temperatura Precipitaţii Vânt Presiune Umiditate
    00:00 +12°C° 0 mm 3 m/s 739 mmHg 91%
    01:00 +12°C° 0 mm 3 m/s 740 mmHg 92%
    02:00 +12°C° 0 mm 3 m/s 740 mmHg 94%
    03:00 +12°C° 0 mm 3 m/s 740 mmHg 97%
    04:00 +12°C° 0.2 mm 4 m/s 739 mmHg 96%
    05:00 +13°C° 0.2 mm 4 m/s 739 mmHg 95%
    06:00 +13°C° 0.2 mm 5 m/s 739 mmHg 94%
    07:00 +13°C° 0.4 mm 5 m/s 739 mmHg 94%
    08:00 +13°C° 0.4 mm 6 m/s 739 mmHg 94%
    09:00 +13°C° 0.4 mm 6 m/s 739 mmHg 94%
    10:00 +14°C° 0.2 mm 6 m/s 740 mmHg 92%
    11:00 +15°C° 0.2 mm 6 m/s 740 mmHg 89%
    12:00 +16°C° 0.2 mm 7 m/s 740 mmHg 87%
    13:00 +17°C° 0.3 mm 7 m/s 740 mmHg 84%
    14:00 +18°C° 0.3 mm 7 m/s 740 mmHg 80%
    15:00 +20°C° 0.3 mm 7 m/s 740 mmHg 77%
    16:00 +20°C° 0.1 mm 6 m/s 740 mmHg 78%
    17:00 +20°C° 0.1 mm 6 m/s 741 mmHg 79%
    18:00 +20°C° 0.1 mm 5 m/s 741 mmHg 80%
    19:00 +17°C° 0 mm 5 m/s 741 mmHg 84%
    20:00 +17°C° 0 mm 4 m/s 741 mmHg 88%
    21:00 +15°C° 0 mm 4 m/s 741 mmHg 91%
    22:00 +15°C° 0 mm 4 m/s 742 mmHg 90%
    23:00 +14°C° 0 mm 5 m/s 742 mmHg 89%

    Mâine, 20 Iulie, Sâmbătă

    Timp Temperatura Precipitaţii Vânt Presiune Umiditate
    00:00 +14°C° 0 mm 5 m/s 742 mmHg 88%
    01:00 +14°C° 0 mm 5 m/s 742 mmHg 88%
    02:00 +13°C° 0 mm 5 m/s 742 mmHg 88%
    03:00 +13°C° 0 mm 6 m/s 743 mmHg 88%
    04:00 +13°C° 0 mm 6 m/s 743 mmHg 88%
    05:00 +14°C° 0 mm 6 m/s 743 mmHg 87%
    06:00 +14°C° 0 mm 6 m/s 743 mmHg 87%
    07:00 +15°C° 0 mm 6 m/s 743 mmHg 85%
    08:00 +16°C° 0 mm 6 m/s 744 mmHg 83%
    09:00 +17°C° 0 mm 6 m/s 744 mmHg 81%
    10:00 +17°C° 0 mm 6 m/s 744 mmHg 80%
    11:00 +19°C° 0 mm 6 m/s 744 mmHg 78%
    12:00 +19°C° 0 mm 6 m/s 745 mmHg 77%
    13:00 +20°C° 0.5 mm 6 m/s 745 mmHg 77%
    14:00 +20°C° 0.5 mm 6 m/s 745 mmHg 78%
    15:00 +21°C° 0.5 mm 7 m/s 745 mmHg 78%
    16:00 +20°C° 0.5 mm 6 m/s 745 mmHg 80%
    17:00 +20°C° 0.5 mm 6 m/s 745 mmHg 81%
    18:00 +20°C° 0.5 mm 5 m/s 745 mmHg 83%
    19:00 +19°C° 0.1 mm 4 m/s 745 mmHg 86%
    20:00 +18°C° 0.1 mm 4 m/s 746 mmHg 89%
    21:00 +16°C° 0.1 mm 3 m/s 746 mmHg 92%
    22:00 +16°C° 0 mm 3 m/s 746 mmHg 93%
    23:00 +15°C° 0 mm 4 m/s 746 mmHg 93%

    Poimâine, 21 Iulie, Duminică

    Timp Temperatura Precipitaţii Vânt Presiune Umiditate
    00:00 +14°C° 0 mm 4 m/s 746 mmHg 94%
    01:00 +14°C° 0 mm 4 m/s 746 mmHg 95%
    02:00 +14°C° 0 mm 4 m/s 746 mmHg 95%
    03:00 +14°C° 0 mm 4 m/s 746 mmHg 95%
    04:00 +14°C° 0 mm 4 m/s 747 mmHg 95%
    05:00 +14°C° 0 mm 4 m/s 747 mmHg 94%
    06:00 +14°C° 0 mm 4 m/s 747 mmHg 94%
    07:00 +17°C° 0 mm 4 m/s 747 mmHg 90%
    08:00 +17°C° 0 mm 5 m/s 747 mmHg 86%
    09:00 +19°C° 0 mm 5 m/s 747 mmHg 83%
    10:00 +20°C° 0.2 mm 5 m/s 747 mmHg 80%
    11:00 +21°C° 0.2 mm 5 m/s 747 mmHg 78%
    12:00 +22°C° 0.2 mm 5 m/s 747 mmHg 76%
    13:00 +22°C° 0.6 mm 5 m/s 747 mmHg 75%
    14:00 +23°C° 0.6 mm 5 m/s 747 mmHg 74%
    15:00 +23°C° 0.6 mm 5 m/s 746 mmHg 73%
    16:00 +23°C° 0.5 mm 5 m/s 747 mmHg 75%
    17:00 +22°C° 0.5 mm 5 m/s 747 mmHg 77%
    18:00 +22°C° 0.5 mm 4 m/s 747 mmHg 78%
    19:00 +21°C° 0.1 mm 4 m/s 747 mmHg 83%
    20:00 +19°C° 0.1 mm 3 m/s 747 mmHg 87%
    21:00 +17°C° 0.1 mm 3 m/s 747 mmHg 91%
    22:00 +17°C° 0 mm 3 m/s 747 mmHg 92%
    23:00 +16°C° 0 mm 2 m/s 747 mmHg 92%

    22 Iulie, Luni

    Timp Temperatura Precipitaţii Vânt Presiune Umiditate
    00:00 +16°C° 0 mm 2 m/s 747 mmHg 93%
    01:00 +15°C° 0 mm 2 m/s 747 mmHg 93%
    02:00 +15°C° 0 mm 2 m/s 747 mmHg 93%
    03:00 +15°C° 0 mm 2 m/s 747 mmHg 94%
    04:00 +15°C° 0 mm 2 m/s 747 mmHg 93%
    05:00 +15°C° 0 mm 2 m/s 747 mmHg 93%
    06:00 +16°C° 0 mm 1 m/s 747 mmHg 92%
    07:00 +18°C° 0 mm 1 m/s 747 mmHg 87%
    08:00 +20°C° 0 mm 1 m/s 747 mmHg 81%
    09:00 +21°C° 0 mm 1 m/s 747 mmHg 75%
    10:00 +22°C° 0 mm 1 m/s 746 mmHg 70%
    11:00 +23°C° 0 mm 1 m/s 746 mmHg 65%
    12:00 +24°C° 0 mm 1 m/s 746 mmHg 60%
    13:00 +25°C° 0 mm 1 m/s 746 mmHg 59%
    14:00 +25°C° 0 mm 1 m/s 746 mmHg 57%
    15:00 +25°C° 0 mm 1 m/s 745 mmHg 55%
    16:00 +25°C° 0 mm 1 m/s 745 mmHg 58%
    17:00 +25°C° 0 mm 1 m/s 745 mmHg 61%
    18:00 +25°C° 0 mm 1 m/s 745 mmHg 63%
    19:00 +23°C° 0 mm 1 m/s 745 mmHg 68%
    20:00 +21°C° 0 mm 1 m/s 745 mmHg 72%
    21:00 +19°C° 0 mm 1 m/s 745 mmHg 76%
    22:00 +19°C° 0 mm 1 m/s 744 mmHg 78%
    23:00 +18°C° 0 mm 1 m/s 744 mmHg 80%

    23 Iulie, Marţi

    Timp Temperatura Precipitaţii Vânt Presiune Umiditate
    00:00 +16°C° 0 mm 1 m/s 744 mmHg 81%
    01:00 +16°C° 0 mm 1 m/s 744 mmHg 84%
    02:00 +15°C° 0 mm 2 m/s 744 mmHg 87%
    03:00 +15°C° 0 mm 2 m/s 744 mmHg 89%
    04:00 +15°C° 0 mm 2 m/s 744 mmHg 89%
    05:00 +15°C° 0 mm 2 m/s 744 mmHg 89%
    06:00 +15°C° 0 mm 2 m/s 744 mmHg 89%
    07:00 +17°C° 0 mm 3 m/s 744 mmHg 85%
    08:00 +18°C° 0 mm 3 m/s 743 mmHg 80%
    09:00 +20°C° 0 mm 3 m/s 743 mmHg 76%
    10:00 +21°C° 0 mm 3 m/s 743 mmHg 73%
    11:00 +21°C° 0 mm 4 m/s 743 mmHg 70%
    12:00 +22°C° 0 mm 4 m/s 743 mmHg 67%
    13:00 +23°C° 0 mm 4 m/s 743 mmHg 65%
    14:00 +24°C° 0 mm 3 m/s 743 mmHg 63%
    15:00 +24°C° 0 mm 3 m/s 743 mmHg 61%
    16:00 +24°C° 0 mm 3 m/s 743 mmHg 64%
    17:00 +24°C° 0 mm 3 m/s 743 mmHg 67%
    18:00 +24°C° 0 mm 3 m/s 743 mmHg 70%
    19:00 +21°C° 0 mm 3 m/s 743 mmHg 71%
    20:00 +19°C° 0 mm 3 m/s 743 mmHg 72%
    21:00 +17°C° 0 mm 2 m/s 743 mmHg 74%
    22:00 +17°C° 0 mm 2 m/s 743 mmHg 77%
    23:00 +16°C° 0 mm 3 m/s 743 mmHg 79%

    24 Iulie, Miercuri

    Timp Temperatura Precipitaţii Vânt Presiune Umiditate
    00:00 +14°C° 0 mm 3 m/s 743 mmHg 82%
    01:00 +14°C° 0 mm 3 m/s 743 mmHg 84%
    02:00 +14°C° 0 mm 2 m/s 743 mmHg 86%
    03:00 +14°C° 0 mm 2 m/s 743 mmHg 87%
    04:00 +13°C° 0 mm 3 m/s 743 mmHg 88%
    05:00 +13°C° 0 mm 3 m/s 743 mmHg 89%
    06:00 +13°C° 0 mm 3 m/s 743 mmHg 90%
    07:00 +16°C° 0 mm 3 m/s 743 mmHg 86%
    08:00 +18°C° 0 mm 3 m/s 743 mmHg 81%
    09:00 +19°C° 0 mm 4 m/s 743 mmHg 77%
    10:00 +20°C° 0.1 mm 4 m/s 743 mmHg 74%
    11:00 +21°C° 0.1 mm 4 m/s 743 mmHg 71%
    12:00 +22°C° 0.1 mm 4 m/s 743 mmHg 68%
    13:00 +22°C° 0.1 mm 4 m/s 743 mmHg 68%
    14:00 +22°C° 0.1 mm 4 m/s 743 mmHg 68%
    15:00 +22°C° 0.1 mm 4 m/s 743 mmHg 68%
    16:00 +22°C° 0.1 mm 4 m/s 743 mmHg 70%
    17:00 +22°C° 0.1 mm 4 m/s 743 mmHg 73%
    18:00 +21°C° 0.1 mm 3 m/s 743 mmHg 75%
    19:00 +20°C° 0 mm 3 m/s 743 mmHg 74%
    20:00 +18°C° 0 mm 3 m/s 744 mmHg 74%
    21:00 +17°C° 0 mm 3 m/s 744 mmHg 73%
    22:00 +16°C° 0 mm 3 m/s 744 mmHg 79%
    23:00 +16°C° 0 mm 3 m/s 744 mmHg 84%
    Arată mai mult